Location: Austin
(30.3000°N, 97.7500°W)
Time: 19:27:28
(UTC-06:00)

Cosmos 1484 Rocket - Pass Details

Date: 31 October 2024
Orbit: 468 x 509 km, 97.6° (Epoch: 05 November)

Event Time Altitude Azimuth Distance (km) Brightness Sun altitude
Rises 06:05:00 0° 12° (NNE) 2,529 6.3 -22.0°
Reaches altitude 10° 06:07:04 10° 12° (NNE) 1,642 5.3 -21.6°
Maximum altitude 06:10:36 87° 101° (E) 476 2.4 -20.8°
Drops below altitude 10° 06:14:04 10° 191° (S) 1,620 5.1 -20.1°
Sets 06:16:06 0° 192° (SSW) 2,491 6.1 -19.7°
